Flight Information

DEPARTURE
ALBUQUERQUE, NM
Elevation:
5354
Runways:
3/21 - 10000x150 - CONC-G
8/26 - 13793x150 - CONC-G
12/30 - 6000x150 - CONC-G
Active PE Departure:
3 - 8
Current PE ATIS:
D
Altimeter:
30.44
Remarks:
V F R DEPARTURES CONTACT CLEARANCE DELIVERY, ADVISE ON COURSE HEADING, ALTITUDE, AND IF FLIGHT FOLLOWING IS REQUESTED. NOTICE TO AIRMEN RUNWAY 1 2 3 0 CLOSED.
ATIS:
118 505-856-4928
Clearance Delivery:
119.2
Ground:
121.9
Tower:
ALBUQUERQUE TOWER 120.3
DESTINATION
,
Elevation:
TPA:
1000 (est.)


6211.8 NM80° True-12° Var68° HDG

Flight Plan:
(click to file on line)

1. Type
2. Aircraft Identification
3. Aircraft Type / Special Equipment
4. True Airspeed
kts
5. Departure Airport
(ICAO code)
6. Arriving Airport
(ICAO code)
7. Cruising Altitude
ft
8. Alternate Airport
(ICAO code)
9. Route of Flight
10. Remarks


00:00:00 Departure ATIS: Destination ATIS:

Clearance Limit:
Route:
Altitude: Expect in minutes
Frequency:
Transponder: (7500 Hijack / 7600 Lost Comms / 7700 Emergency)


KABQ 261452Z 09010KT 8SM -RA FEW004 BKN050 OVC080 17/14 A3044 RMK AO2 SLP247 MTNS OBSC NE-SE P0003 60003 T01670139 53013
Time: 2022-06-26T14:52:00Z
1656255794
Winds: 90 @ 10 kts
Visibility: 8.0 sm
Clouds (AGL): FEW 400
BKN 5000
OVC 8000
Temperature: 16.7 C
Dew Point: 13.9 C
Pressure: 30.43996 in Hgbr


Notes:

Data extracted from FAA Digital Chart Supplement. Effective: 0901Z Thursday, 27 JAN 2022 to 0900z Thursday, 24 MAR 2022
Current ATIS data is provided courtisy of PilotEdge.